Location: Poughquag
(41.6090°N, 73.6820°W)
Time: 02:01:28
(UTC-04:00)

S-56A Canister/Altair - Pass Details

Date: 04 June 2020
Orbit: 633 x 2499 km, 38.9° (Epoch: 06 July)

Event Time Altitude Azimuth Distance (km) Brightness Sun altitude
Rises 05:03:13 0° 248° (WSW) 3,116 - -3.7°
Exits shadow 05:04:03 - 246° (WSW) 2,794 9.7 -3.6°
Reaches altitude 10° 05:05:19 10° 244° (WSW) 2,315 9.3 -3.4°
Maximum altitude 05:10:35 61° 165° (SSE) 1,087 8.3 -2.6°
Drops below altitude 10° 05:18:17 10° 87° (E) 3,347 12.0 -1.4°
Sets 05:21:54 0° 85° (E) 4,635 12.9 -0.8°
